Regional Weather Roundup
Issued by NWS State College, PA

Home | Current Version | Previous Version | Graphics & Text | Print | Product List | Glossary Off
Versions: 1 2 3 4 5 6 7 8 9 10 11 12 13 14 15 16 17 18 19 20 21 22 23 24 25 26 27 28 29 30 31 32 33 34 35 36 37 38 39 40 41 42 43 44 45 46 47 48 49 50

000
ASUS41 KCTP 140803
RWRCTP

REGIONAL WEATHER ROUNDUP
NATIONAL WEATHER SERVICE STATE COLLEGE PA
300 AM EST THU DEC 14 2017

Note: "fair" indicates few or no clouds below 12,000 feet with no
significant weather and/or obstructions to visibility.

* = STATION THAT DOES NOT REPORT PRECIPITATION /E.G. RAIN...SNOW...ETC/
    THUNDER OR FOG.

PAZ002>004-007>009-013>016-020>023-029>032-140900-
WESTERN PENNSYLVANIA

CITY           SKY/WX    TMP DP  RH WIND       PRES   REMARKS
ERIE           LGT SNOW  21  18  88 CALM      29.52R FOG
MEADVILLE      LGT SNOW  18  17  96 N7        29.45R FOG     WCI   9
FRANKLIN*      LGT SNOW  19  17  92 N6        29.43R FOG     WCI  11
NEW CASTLE     LGT SNOW  23  22  96 N5        29.47R FOG
BEAVER COUNTY  NOT AVBL
BUTLER*        LGT SNOW  28  26  92 W9G17     29.42R FOG
PITTSBURGH INT LGT SNOW  33  28  81 W14G30    29.42R BLWGSNOW
PITTSBURGH     LGT SNOW  31  26  82 W21G43    29.42R
INDIANA*       FOG       30  30 100 W13       29.43R VSB 3/4
LATROBE        LGT SNOW  32  30  93 SW14      29.45R
WASHINGTON CO* MIX PCPN  32  29  88 W20       29.49R
$$

PAZ004>006-010>012-017>019-024>028-033>037-041-042-045-046-049>053-140900-
CENTRAL PENNSYLVANIA

CITY           SKY/WX    TMP DP  RH WIND       PRES   REMARKS
BRADFORD       LGT SNOW  15  12  88 N3        29.38R FOG
DUBOIS         LGT SNOW  19  16  88 NE5       29.37R VSB 1   WCI  12
CLEARFIELD     LGT SNOW  18  16  92 N7        29.40R VSB 1   WCI   9
JOHNSTOWN      LGT SNOW  29  27  92 W18G30    29.35R VSB 3/4
ALTOONA        LGT SNOW  24  22  91 NW3       29.40R FOG
STATE COLLEGE  LGT SNOW  19  17  92 N5        29.42S WCI  12
WILLIAMSPORT   LGT SNOW  22  17  81 E6        29.49S WCI  14
SELINSGROVE    LGT SNOW  21  19  92 NW3       29.50F FOG
FT INDIANTOWN  CLOUDY    22  22  99 NE5       29.50F
CAPITAL CITY   FLURRIES  26  21  81 E6        29.50F
HARRISBURG     FLURRIES  25  23  92 E5        29.49F
YORK           CLOUDY    27  23  85 CALM      29.48F
$$

PAZ038>040-043-044-047-048-054-055-060>062-067>071-140900-
EASTERN PENNSYLVANIA

CITY           SKY/WX    TMP DP  RH WIND       PRES   REMARKS
SCRANTON       LGT SNOW  20  17  88 NE5       29.48F FOG     WCI  13
MOUNT POCONO   LGT SNOW  14  13  95 E7        29.42F FOG     WCI   4
ALLENTOWN      CLOUDY    23  18  81 E7        29.54F WCI  15
QUAKERTOWN*    CLOUDY    23  21  93 E3        29.53F
READING        CLOUDY    25  24  96 CALM      29.51F
LANCASTER      CLOUDY    26  25  96 E6        29.50F
COATESVILLE    CLOUDY    27  27 100 SE5       29.50F
POTTSTOWN      CLOUDY    24  22  91 E3        29.54F
BLUE BELL      CLOUDY    27  27 100 CALM      29.55F
DOYLESTOWN     CLOUDY    24  22  91 E3        29.53F
WILLOW GROVE   NOT AVBL
NORTH PHILA    CLOUDY    28  24  85 E5        29.57F
PHILADELPHIA   CLOUDY    29  25  85 E3        29.55F
$$




USA.gov is the U.S. government's official web portal to all federal, state and local government web resources and services.